Weather in Zheleznodorozhny

Russia / Kaliningrad Oblast     54°21′39″N   21°18′19″E
temp.,
°C
wind,
m/s
gust,
m/s
humid.,
%
clouds,
%
prec.,
mm/h
press.,
hPa
HPBL,
m
8 may, sat
sat823:00+2wnw3792100 0.0 1010143
02:00+1wnw369884 0.0 1011148
05:00+3wnw259649 0.2 1012315
08:00+5wnw34776 0.2 1014595
11:00+8w556478 0.1 10151465
14:00+9w566797 0.8 10151250
17:00+8wnw577935 1.9 10161147
20:00+5wnw35913 2.6 101885
9 may, sun
sun923:00+2wsw22930 0.0 101920
02:00+2ssw33925 0.0 102031
05:00+1s3592100 0.0 102074
08:00+7s598041 0.0 1020360
11:00+12s7962100 0.0 10191095
14:00+11s61170100 0.0 1018492
17:00+13s7137342 0.0 1017760
20:00+11s51282100 0.0 1017302
10 may, mon
mon1023:00+10sse615879 0.0 1017285
02:00+9sse6148568 0.0 1017263
05:00+8sse5129089 0.0 1017235
08:00+12sse61481100 0.0 1018413
11:00+17sse713696 0.0 1017763
14:00+20sse813668 0.0 10161168
17:00+19sse814709 0.0 10151141
20:00+16sse6147898 0.0 1017471
11 may, tue
tue1123:00+14sse716795 0.0 1017498
02:00+12sse7158511 0.0 1017387
05:00+11se715876 0.0 1016348
08:00+14se716810 0.0 1016553
11:00+18se814730 0.0 1015877
14:00+20se915700 0.0 10141138
17:00+20sse915710 0.0 10131000
20:00+16se817720 0.0 1013668
12 may, wed
wed1223:00+14se818630 0.0 1014627
02:00+12se717675 0.0 1014525
05:00+10se717773 0.0 1014401
08:00+14se817790 0.0 1014623
11:00+19se813735 0.0 10131058
14:00+20ese811682 0.0 10121457
17:00+19ese710710 0.0 10121062
20:00+16ese612845 0.0 1012464